Regional Weather Roundup
Issued by NWS

Home | Current Version | Previous Version | Graphics & Text | Print | Product List | Glossary On
Versions: 1 2 3 4 5 6 7 8 9 10 11 12 13 14 15 16 17 18 19 20 21 22 23 24 25 26 27 28 29 30 31 32 33 34 35 36 37 38 39 40 41 42 43 44 45 46 47 48 49 50
000
ASUS43 KLSX 020559
RWRMO

WEATHER SUMMARY FOR MISSOURI
NATIONAL WEATHER SERVICE SPRINGFIELD MO
100 AM CDT THU APR 02 2015

NOTE: "FAIR" INDICATES FEW OR NO CLOUDS BELOW 12,000 FEET WITH NO
       SIGNIFICANT WEATHER AND/OR OBSTRUCTIONS TO VISIBILITY.
       CURRENT SKY AND/OR WEATHER CONDITIONS ARE NOT AVAILABLE FOR
       CHILLICOTHE AND FARMINGTON.

MOZ001>031-035>038-043-044-053-054-020700-
...NORTHERN AND WESTERN MISSOURI...

CITY           SKY/WX    TMP DP  RH WIND       PRES   REMARKS
KANSAS CTY INT CLOUDY    64  59  83 S23G32    29.61F
6HR MIN TEMP:  61; 6HR MAX TEMP:  69;

KANSAS C DTWN  PTCLDY    65  58  78 S16G23    29.62F
6HR MIN TEMP:  63; 6HR MAX TEMP:  70;

LEE`S SUMMIT   CLEAR     62  58  86 S15G22    29.66F
6HR MIN TEMP:  61; 6HR MAX TEMP:  67;

ST JOSEPH      CLOUDY    63  58  83 S14       29.60F
6HR MIN TEMP:  61; 6HR MAX TEMP:  72;

CHILLICOTHE      N/A     60  56  86 S10       29.68F
6HR MIN TEMP:  60; 6HR MAX TEMP:  70;

KIRKSVILLE     MOCLDY    59  56  89 S12       29.71F
6HR MIN TEMP:  56; 6HR MAX TEMP:  71;


$$
MOZ066>068-077>081-088>096-101>105-020700-
...SOUTHWEST MISSOURI...

CITY           SKY/WX    TMP DP  RH WIND       PRES   REMARKS
SPRINGFIELD    CLEAR     60  56  86 S20       29.77F
6HR MIN TEMP:  60; 6HR MAX TEMP:  65;

JOPLIN         CLEAR     66  60  81 S20       29.74F
6HR MIN TEMP:  66; 6HR MAX TEMP:  70;


$$
MOZ032>034-039>042-045>050-055>058-069>072-020700-
...CENTRAL MISSOURI...

CITY           SKY/WX    TMP DP  RH WIND       PRES   REMARKS
COLUMBIA       CLEAR     59  57  93 S13       29.75S
6HR MIN TEMP:  57; 6HR MAX TEMP:  59; 6HR PCP:  0.11;

JEFFERSON CITY CLEAR     63  58  83 S12       29.75F
6HR MIN TEMP:  56; 6HR MAX TEMP:  63; 6HR PCP:  0.41;

ROLLA          CLEAR     61  55  81 S14G23    29.79S
6HR MIN TEMP:  58; 6HR MAX TEMP:  62; 6HR PCP:  0.02;

OSAGE BEACH    CLEAR     63  55  77 S10G16    29.77R

$$
MOZ051-052-059>065-020700-
...EAST CENTRAL MISSOURI...

CITY           SKY/WX    TMP DP  RH WIND       PRES   REMARKS
ST LOUIS INTL  CLOUDY    67  48  50 S13G20    29.81R
6HR MIN TEMP:  67; 6HR MAX TEMP:  73;

SPIRIT OF STL  MOCLDY    66  53  63 S13G22    29.78F
6HR MIN TEMP:  66; 6HR MAX TEMP:  73; 6HR PCP: TRACE;

ST CHARLES     CLOUDY    65  49  56 S16       29.78F
6HR MIN TEMP:  63; 6HR MAX TEMP:  71;


$$
MOZ072>076-082>087-097>100-106>115-020700-
...SOUTH CENTRAL AND SOUTHEAST MISSOURI...

CITY           SKY/WX    TMP DP  RH WIND       PRES   REMARKS
CAPE GIRARDEAU LGT RAIN  64  59  83 S10       29.90S
6HR MIN TEMP:  61; 6HR MAX TEMP:  67; 6HR PCP:  0.06;

FARMINGTON     CLOUDY    64  54  68 S20G29    29.89F
6HR MIN TEMP:  63; 6HR MAX TEMP:  64;

POPLAR BLUFF   LGT RAIN  61  58  90 S7        29.92F
6HR MIN TEMP:  61; 6HR MAX TEMP:  65; 6HR PCP:  0.35;

WEST PLAINS    MOCLDY    62  55  77 S15       29.86F
6HR MIN TEMP:  60; 6HR MAX TEMP:  65; 6HR PCP:  0.05;


$$


USA.gov is the U.S. government's official web portal to all federal, state and local government web resources and services.